GSAT0227 (GALILEO 30)

Last updated on Thu Sep 03 2026 00:02:49 GMT+0000 (Coordinated Universal Time)

1 59600U 24079C 26244.84558580 .00000021 00000+0 00000+0 0 9994 2 59600 55.1630 98.9347 0004012 90.0418 270.0964 1.70474000 14670
UTC large
Height (km)
Speed (km/s)
/
Latitude / Longitude
Inclination (degrees)
Orbital Period (minutes)
Azimuth
Elevation
Range (km)
Doppler Factor

Next 0 passes for location: London (51.5072 / 0.1276)

No passes found over London.
GSAT0227 (GALILEO 30)